Location: Newark
(35.6799°N, 139.7636°E)
Time: 18:31:32
(UTC+00:00)

Transit 2A - Pass Details

Date: 07 December 2019
Orbit: 601 x 958 km, 66.7° (Epoch: 27 January)

Event Time Altitude Azimuth Distance (km) Brightness Sun altitude
Rises 23:34:00 0° 260° (W) 3,076 8.8 18.0°
Reaches altitude 10° 23:38:29 10° 298° (WNW) 2,072 7.8 18.6°
Maximum altitude 23:39:32 11° 311° (NW) 2,009 7.7 18.7°
Drops below altitude 10° 23:40:36 10° 325° (NW) 2,038 7.7 18.9°
Sets 23:44:50 0° 4° (N) 2,891 8.6 19.5°
